ARIANE 2 DEB, 33569

Orbit data source: Space-Track

ARIANE 2 DEB, 33569 is space debris in HEO originally from a launch on Fri, 27 Jan 1989 UTC launched from the French Guiana (FRGUI). Debris objects in space refer to the collection of defunct objects orbiting the Earth. Examples of debris include non-operational satellites, rocket bodies, and fragments generated from explosions, collisions, or faulty payload assembly.

Loading next visibility...
Identifier
33569, 1989-006BM
Orbit
HEO
Country
Flag of FRFR
Related business
Manufacturer
EADS/LV
Mission
Spacecraft
Bus & Motor
Unknown
Mass
Unknown
Launch date (UTC)
1989-01-27 (38 years ago)
Launch vehicle
Unknown
Launch site
French Guiana (FRGUI)
Object type
Payload
Rocket body
Debris
Shape & HBR
Unknown shape, 0.1 m
Radar Cross Section
Medium (>0.1 m² and <1 m²)

Expand to show TLE details & history
Last TLE update: 3 months ago

TLE from 3 months ago
0 ARIANE 2 DEB
1 33569U 89006BM  26177.35208978  .00001231  00000-0  32281-1 0  9998
2 33569   8.7053 209.2038 7079592 158.3817 302.8664  2.29746335 31966
Epoch: 2026-06-26T08:27Z
TLE epoch observation values (Epoch: 2026-06-26T08:27:00.556Z)
Latitude
2.70993°
Longitude
-173.77822°
Altitude
20,081.837 km
Speed
3.701 km/s
True Right ascension
15h 09m 49s
True Declination
2° 42' 20"
Sunlit
Object was in daylight at epoch
Visualization orbit readout
Latitude
Unknown
Longitude
Unknown
Altitude
Unknown
Speed
Unknown
Apparent Right ascension
Unknown
Apparent Declination
Unknown
Sunlit
N/A
Visualization observer readout
Local Sidereal Time
21:02:40
Azimuth
Unknown
Elevation
Unknown
Doppler factor
Unknown
Orbital elements
Apogee altitude
35,066.622 km
Perigee altitude
708.426 km
Semi-major axis
24,265.661 km
Eccentricity
0.70796
Inclination
8.7053°
RAAN
209.2038°
Arg. of periapsis
158.3817°
True anomaly
219.95406°
Mean anomaly
302.8664°
Eccentric anomaly
262.63774°
Mean motion
0.57419 °/min
Orbital period
626.97 mins
BSTAR
0.032281
Loading maneuver chart data...
Computing Atmospheric mass density...
Loading historical data...
Loading historical data...
Loading historical data...
Loading historical data...
Loading historical data...
Loading historical data...
Loading historical data...

Documentation

Showing up to 5 results
|